Location: Riverview Farm Park
(37.0930°N, 76.5291°W)
Time: 15:30:49
(UTC-05:00)

Tiangong 1 - Visible Passes

Search period start: 23 November 2017 00:00
Search period end: 03 December 2017 00:00
Orbit: 283 x 308 km, 42.8° (Epoch: 23 November)

Date Brightness Start Highest point End Pass type
(mag) Time Alt. Az. Time Alt. Az. Time Alt. Az.
23 Nov 3.1 17:36:32 10° S 17:37:44 12° SE 17:38:54 10° ESE visible
24 Nov 2.0 17:41:52 10° SSW 17:44:07 26° SSE 17:45:27 17° E visible
25 Nov 0.7 17:47:52 10° SW 17:50:26 60° SSE 17:51:40 26° E visible
26 Nov 0.7 17:54:07 10° WSW 17:56:42 63° NNW 17:57:41 31° NE visible
27 Nov 1.6 18:00:26 10° W 18:02:52 35° NNW 18:03:32 29° NNE visible
28 Nov 2.0 18:06:42 10° WNW 18:08:57 25° N 18:09:12 25° N visible
29 Nov 2.4 18:12:48 10° WNW 18:14:43 22° NNW 18:14:43 22° NNW visible
30 Nov 2.6 18:18:39 10° NW 18:20:07 20° NNW 18:20:07 20° NNW visible
01 Dec 2.8 18:24:13 10° NW 18:25:24 19° NNW 18:25:24 19° NNW visible
02 Dec 2.9 18:29:33 10° NW 18:30:36 19° NW 18:30:36 19° NW visible
